Время (UTC), дата Ветер
(°,м/с) 
Видим.   Явления Облачность Т
(°С)
Тd
(°С)
f(%) Тe
(°С)
Pmin
(гПа)
dP
(гПа)
Po
(мм)
O2
(г/м3)
Тmin Tmax R s Состояние
почвы
00 01.10.12 140 (ЮВ) 10 км  в посл. час дождь  10/10 300 м 
[Frnb]
+10 +8.4 90 +10  1009.3  -4  746  289           
03 01.10.12 160 (Ю) 10 км  слаб. дождь  10/10 300 м 
[St]
+10.4 +9.3 93 +10  1004.7  -4.4  743  287  +10      влажная 
06 01.10.12 200 (Ю) 10 км  в посл. час дождь  10/10 330 м 
[St]
+11.1 +10.3 95 +14  1001.4  -3.2  741  285           
09 01.10.12 250 (З) 3{11}  10 км  слаб. ливневой дождь  9/5 600 м кучево-дожд., средняя 
[Cb cap|Ac cast]
+11.1 +8.8 86 +11  1000.1  -1.3  740  285           
12 01.10.12 280 (З) 10 км  {ливн. осадки}  10/10 420 м 
[St]
+10.4 +8.1 86 +11  1000.8  0.7  740  286           
15 01.10.12 330 (СЗ) 4-11{11}  10 км  слаб. дождь  10/10 420 м 
[Frnb|Ns]
+10.2 +8.8 91 +9  1004.2  3.3  743  287    +12.1     
18 01.10.12 320 (СЗ) 4{12}  10 км  {дождь}  10/10 500 м 
[Sc]
+9.6 +7.3 86 +9  1007.9  3.3  746  289         
21 01.10.12 330 (СЗ) 4{11}  10 км    10/10 700 м 
[Sc]
+9.7 +6.6 81 +9  1011.2  3.3  748  290           
00 02.10.12 330 (СЗ) 10 км    10/10 540 м 
[Sc]
+8.8 +6.9 88 +8  1014.4  3.1  750  292           
03 02.10.12 330 (СЗ) 10 км  {дождь}  10/10 900 м 
[Sc]
+8.2 +6 86 +8  1016.7  2.2  752  293  +8    0.8    мокрая 
06 02.10.12 330 (СЗ) 3{11}  >10 км  {дождь}  5/5 1000 м 
[Cu hum]
+8.8 +2.6 65 +8  1018.9  2.2  754  294  +7.9         
09 02.10.12 320 (СЗ) 4{10}  >10 км    3/3 600 м 
[Cu hum]
+10.8 +1.6 53 +10  1020.1  1.3  755  292           
12 02.10.12 340 (С) 3{10}  >10 км    4/4 600 м 
[Sc diur, vesp]
+11 +0.5 48 +11  1021.4  1.3  755  293           
15 02.10.12 320 (СЗ) 10 км    6/6 1000 м 
[Sc diur, vesp]
+9.2 +1 57 +9  1022.8  1.3  756  295    +11.3       
18 02.10.12 010 (С) 10 км    3/0 средняя 
[Ac cast]
+7.2 +1.7 68 +8  1023.7  0.8  757  297           
21 02.10.12 тихо ()   10 км    ясно 
+4 +1.2 82 +4  1024.9  758  301           
00 03.10.12 020 (С) 10 км    ясно 
+2.7 +0.3 84 +3  1025.5  0.9  758  302           
03 03.10.12 010 (С) 10 км    ясно 
+1.1 -0.9 87 +2  1026.2  0.6  759  305  +1        замёрзшая 
06 03.10.12 020 (С) >10 км    3/0 средняя, верхняя 
[Ac lent|Ci fib]
+4 -0.9 70 +4  1026.6  0.5  759  301           
09 03.10.12 340 (С) >10 км    1/0 верхняя 
[Ci fib]
+7.9 -1.4 52 +9  1025.7  -0.4  759  297           
12 03.10.12 350 (С) >10 км    3/0 верхняя 
[Cc]
+9.8 -0.7 48 +11  1024.6  -1  758  295           
15 03.10.12 030 (СВ) 10 км    9/0 средняя 
[Ac lent]
+8.2 -0.7 53 +9  1024.7  758  297    +10       
18 03.10.12 120 (ЮВ) 10 км    8/0 средняя 
[Ac lent]
+5.8 +0.3 68 +7  1024.5  -0.3  758  299           
21 03.10.12 130 (ЮВ) 10 км    10/0 средняя 
[Ac lent]
+4.9 -0.7 67 +6  1024.6  758  300           
00 04.10.12 160 (Ю) 10 км    10/0 
+4.8 -1.8 62 +6  1024.4  -0.2  757  300           
03 04.10.12 150 (ЮВ) 10 км    10/0 средняя 
[Ac As]
+5.1 +0.7 73 +6  1023.9  -0.5  757  299  +4.5        влажная 
06 04.10.12 160 (Ю) >10 км    10/0 средняя 
[Ac As]
+6.8 +2.5 74 +7  1023.8  757  297           
09 04.10.12 170 (Ю) >10 км    10/0 средняя 
[Ac As]
+9.2 +3.7 69 +9  1022.9  -0.7  757  294           
12 04.10.12 160 (Ю) >10 км    10/0 средняя 
[Ac As]
+9.3 +3.3 66 +9  1022.2  -0.7  756  294           
15 04.10.12 160 (Ю) 10 км    10/0 средняя 
[Ac As]
+8.8 +3.9 71 +8  1021.4  -0.8  755  294    +9.6       
18 04.10.12 160 (Ю) 10 км    10/10 1000 м 
[Sc]
+7.7 +5.1 84 +8  1020.7  -0.7  755  295           
21 04.10.12 160 (Ю) 10 км    8/0 средняя 
[Ac cast]
+8.5 +5.2 80 +8  1019.4  -1.3  754  294           
00 05.10.12 160 (Ю) 10 км  дождь  10/10 240 м 
[Ns]
+8.2 +6.6 90 +8  1017.8  -1.5  753  293           
03 05.10.12 190 (Ю) 10 км  в посл. час дождь  10/10 210 м 
[]
+9.5 +8.7 95 +10  1016.7  -1  752  291  +7.7      мокрая 
06 05.10.12 260 (З) 10 км  {дождь}  10/10 700 м 
[Sc]
+11.9 +9.8 87 +13  1016.3  -0.3  752  288           
09 05.10.12 250 (З) 10 км    10/10 660 м 
[Sc]
+14 +9.9 76 +15  1016.4  0.2  752  286           
12 05.10.12 250 (З) 10 км    10/10 720 м 
[Sc]
+15.5 +11.1 75 +19  1016  -0.3  752  285           
15 05.10.12 210 (ЮЗ) 10 км    5/1 600 м средняя 
[Sc|Ac cast]
+13.3 +8.7 74 +15  1016  0.1  752  287    +16.1       
18 05.10.12 250 (З) 10 км    8/4 600 м средняя 
[Sc|Ac lent]
+13.9 +7.4 65 +14  1016.2  0.2  752  287           
21 05.10.12 190 (Ю) 10 км  слаб. дождь{ливн. осадки}  10/10 720 м 
[Ns]
+11.7 +8.6 81 +13  1016.3  0.1  752  289           
00 06.10.12 160 (Ю) 10 км  {ливн. осадки, дождь}  9/9 750 м 
[Sc]
+10.5 +7.7 83 +12  1015.7  -0.6  751  290           
03 06.10.12 170 (Ю) 10 км    10/1 600 м средняя 
[Sc|Ac As]
+9.6 +5.4 75 +10  1014.1  -1.7  750  291  +9.4      влажная 
06 06.10.12 160 (Ю) 10 км  слаб. дождь  10/10 700 м 
[Sc]
+10.1 +4.6 69 +10  1013.2  -0.8  749  290  +9.4         
09 06.10.12 160 (Ю) 10 км  {дождь}  9/9 1000 м 
[Sc]
+12 +1.8 50 +11  1010.6  -2.5  748  288           
12 06.10.12 160 (Ю) 4{11}  10 км  {дождь}  10/10 840 м 
[Sc]
+11.6 +1.5 50 +11  1009.1  -1.5  746  288           
15 06.10.12 190 (Ю) 2{11}  10 км    10/10 750 м 
[Sc]
+10.6 +5.4 70 +11  1007.5  -1.5  745  288    +14.2  0.3     
18 06.10.12 230 (ЮЗ) 10 км    10/6 750 м средняя 
[Sc|Ac und]
+10 +7.3 83 +10  1007  -0.5  745  288           
21 06.10.12 250 (З) 10 км  {ливн. осадки}  1/0 средняя 
[Ac cast]
+10.3 +8.1 86 +9  1006.2  -0.8  744  288           
00 07.10.12 260 (З) 10 км  {ливн. осадки}  10/10 600 м 
[Sc]
+10.6 +7 78 +10  1006.7  0.5  745  288           
03 07.10.12 250 (З) 3{11}  10 км    10/10 930 м 
[Sc]
+10.5 +6.3 75 +10  1008  1.3  746  288  +9.7        влажная 
06 07.10.12 260 (З) >10 км    9/3 1000 м средняя, верхняя 
[Sc|Ac trans|Ci fib]
+11.1 +5.3 67 +10  1010  747  288           
09 07.10.12 260 (З) 4{10}  >10 км    10/4 1000 м средняя 
[Sc|Ac As]
+11.1 +3.7 60 +10  1010.5  0.5  747  289           
12 07.10.12 190 (Ю) >10 км    10/3 1000 м средняя, верхняя 
[Sc|As op|Cs]
+12.2 +5.7 64 +13  1007.9  -2.5  746  287           
15 07.10.12 200 (Ю) 3{10}  10 км    10/0 средняя, верхняя 
[Ac As|Cc]
+14.6 +7.1 61 +15  1005.9  -1.8  744  283    +14.6       
18 07.10.12 250 (З) 6-11{11}  10 км    10/3 1080 м средняя 
[Sc|Ac lent]
+16.3 +9.9 66 +17  1005.7  -0.1  744  281           
21 07.10.12 290 (З) 5-11{13}  10 км    8/0 средняя 
[Ac lent]
+14.9 +7.9 63 +14  1007.6  1.8  745  283           
00 08.10.12 290 (З) 3{13}  10 км    3/0 средняя 
[Ac lent]
+10.3 +3.9 64 +10  1011.2  3.3  748  290           
03 08.10.12 тихо ()   10 км    6/0 верхняя 
[Cc]
+7.7 +3.7 76 +8  1013.3  1.9  749  293  +7.7        влажная 
06 08.10.12 060 (СВ) >10 км    8/0 верхняя 
[Ci fib]
+9.1 +3 66 +10  1015.2  751  292  +7.4         
09 08.10.12 210 (ЮЗ) >10 км    3/0 верхняя 
[Ci fib]
+12.4 +3.8 56 +14  1014.9  -0.2  751  289           
12 08.10.12 150 (ЮВ) >10 км    8/0 верхняя 
[Cs]
+13.4 +4.9 56 +14  1013.6  -1.1  750  287           
15 08.10.12 110 (В) 10 км    9/0 средняя, верхняя 
[Ac As|Ci sp]
+11.6 +5.1 64 +11  1012.5  -1.2  749  289    +13.7       
18 08.10.12 130 (ЮВ) 10 км    8/0 средняя 
[Ac cast]
+12 +8.2 78 +12  1010.9  -1.5  748  287           
21 08.10.12 150 (ЮВ) 10 км    4/0 средняя, верхняя 
[Ac trans|Ci fib]
+11.7 +8.9 83 +12  1010.3  -0.6  747  287           
00 09.10.12 150 (ЮВ) 10 км    ясно 
+10.6 +6.6 76 +11  1009.8  -0.6  747  289           
03 09.10.12 140 (ЮВ) 10 км    10/0 верхняя 
[Cc]
+9.8 +5.2 73 +10  1009.1  -0.7  746  289  +9.7        влажная 
06 09.10.12 150 (ЮВ) 10 км    10/0 средняя, верхняя 
[Ac cast|Ci fib]
+12.4 +8.5 77 +12  1008.6  -0.4  746  286           
09 09.10.12 170 (Ю) >10 км    10/0 средняя, верхняя 
[Ac lent|Cs]
+15.9 +9.4 65 +17  1007.8  -0.6  746  282           
12 09.10.12 160 (Ю) 3{10}  >10 км    10/0 средняя 
[Ac As]
+17.4 +7.6 53 +18  1007  -0.7  745  281           
15 09.10.12 150 (ЮВ) 10 км    10/0 средняя, верхняя 
[Ac cast|Ci fib]
+16.5 +4.3 44 +17  1006.4  -0.6  745  282    +17.7       
18 09.10.12 150 (ЮВ) 4{11}  10 км    8/0 средняя 
[Ac As]
+16.2 +1.4 37 +16  1005.5  -1  744  283           
21 09.10.12 120 (ЮВ) 3{10}  10 км  слаб. дождь  10/10 700 м 
[Sc]
+14 +5.5 57 +14  1003.1  -2.4  742  284           
00 10.10.12 150 (ЮВ) 10 км  слаб. дождь  10/10 700 м 
[Sc]
+14.1 +4.8 54 +15  1002.6  -0.4  742  283           
03 10.10.12 140 (ЮВ) 5{10}  10 км  в посл. час дождь  10/10 660 м 
[Ns]
+10.6 +7.6 82 +9  1002  -0.8  741  286  +10.3      мокрая 
06 10.10.12 160 (Ю) >10 км  {дождь}  10/10 500 м 
[Sc]
+12 +8.8 81 +11  1001.6  -0.3  741  284           
09 10.10.12 210 (ЮЗ) 3-10{15}  >10 км    8/5 600 м верхняя 
[Cu med, cong|Cs]
+13.7 +3.8 51 +14  1003.3  1.8  742  284           
12 10.10.12 190 (Ю) 2{13}  >10 км    10/10 800 м 
[Sc]
+12.3 +5.2 62 +13  1006.3  2.9  744  286           
15 10.10.12 250 (З) 4{12}  10 км  {морось}  8/8 240 м 
[St]
+9.6 +4.2 69 +9  1010.1  3.6  747  290    +13.7       
18 10.10.12 200 (Ю) 10 км  {морось}  ясно 
+7.4 +3.7 77 +8  1012.5  2.2  749  293           
21 10.10.12 170 (Ю) 10 км    ясно 
+6 +3 81 +7  1014.3  1.7  750  295           
00 11.10.12 160 (Ю) 10 км    ясно 
+5.4 +2.8 83 +6  1015.5  1.2  751  296           
03 11.10.12 170 (Ю) 10 км    ясно 
+4.3 +2.4 87 +5  1016.8  1.3  752  298  +4.3        влажная 
06 11.10.12 200 (Ю) >10 км    3/0 средняя, верхняя 
[Ac lent|Cc]
+8.8 +4.2 73 +9  1018.8  2.1  753  293           
09 11.10.12 180 (Ю) >10 км    1/0 средняя 
[Ac lent]
+12.9 +5.3 60 +13  1019.3  2.1  754  289           
12 11.10.12 250 (З) >10 км    3/3 1000 м 
[Cu med, cong]
+13.6 +4.1 53 +14  1019.8  0.5  754  289           
15 11.10.12 150 (ЮВ) 10 км    3/0 средняя 
[Ac trans]
+10.2 +4.6 68 +11  1020.5  0.5  755  292    +14.5       
18 11.10.12 160 (Ю) 10 км    ясно 
+9.4 +4.8 73 +9  1020.8  0.3  755  293           
21 11.10.12 140 (ЮВ) 10 км    ясно 
+7.9 +4.5 79 +9  1021.2  0.2  755  295           
00 12.10.12 140 (ЮВ) 10 км    1/0 верхняя 
[Ci fib]
+7.4 +4.5 82 +7  1021.2  755  296           
03 12.10.12 120 (ЮВ) 10 км    9/9 240 м 
[St]
+7.7 +3.7 76 +9  1021  -0.2  755  295  +7.3        влажная 
06 12.10.12 140 (ЮВ) >10 км    8/0 средняя, верхняя 
[Ac lent|Cs]
+9.6 +4.2 69 +9  1020.8  0.1  755  293           
09 12.10.12 170 (Ю) >10 км    8/0 верхняя 
[Cs]
+13.9 +3.6 50 +14  1019.9  -0.6  754  289           
12 12.10.12 110 (В) >10 км    9/0 средняя, верхняя 
[Ac lent|Cs]
+13.4 +3 49 +14  1018.3  -1.5  753  289           
15 12.10.12 080 (В) 10 км    8/0 средняя, верхняя 
[Ac lent|Cs]
+11.4 +2.5 54 +12  1017.4  -1  753  291    +14.1       
18 12.10.12 100 (В) 10 км  слаб. дождь  10/0 средняя 
[Ac As]
+10.1 +3.8 65 +10  1015.3  -2.2  751  291           
21 12.10.12 080 (В) 10 км  слаб. дождь  10/10 500 м 
[Ns]
+8.1 +5 81 +7  1013.1  -2.3  749  292           
00 13.10.12 080 (В) 10 км  слаб. дождь  10/10 480 м 
[Ns]
+7.6 +5.7 88 +8  1010.4  -2.7  747  292           
03 13.10.12 080 (В) 4000 м  сильн. дождь  10/10 300 м 
[Ns]
+7.5 +6.3 92 +7  1007.1  -3.2  745  291  +7.5      мокрая 
06 13.10.12 130 (ЮВ) 4000 м  дождь  10/10 300 м 
[Frnb|Ns]
+8.3 +7.2 93 +8  1005.2  -1.8  743  289           
09 13.10.12 110 (В) 4000 м  дождь  10/10 300 м 
[Frnb|Ns]
+9.3 +8.4 94 +9  1003.9  -1.2  743  288           
12 13.10.12 140 (ЮВ) 4000 м  дождь  10/10 300 м 
[Frnb|Ns]
+9.9 +8.7 92 +10  1003.2  -0.5  742  287           
15 13.10.12 150 (ЮВ) 4000 м  дождь  10/10 300 м 
[Frnb|Ns]
+9.5 +8.6 94 +9  1004  0.7  743  288    +10.1  20     
18 13.10.12 260 (З) 10 км  {дождь}  10/10 480 м 
[Sc]
+8.7 +8 95 +9  1004  743  289           
21 13.10.12 250 (З) 10 км  {дождь}  10/10 300 м 
[St]
+8.1 +7.4 95 +8  1005.8  1.8  744  290           
00 14.10.12 270 (З) 4000 м  морось{дождь}  10/10 300 м 
[St]
+8 +7.4 96 +9  1006.9  1.1  745  290           
03 14.10.12 310 (СЗ) 4000 м  слаб. дождь{морось}  10/10 270 м 
[Frnb|Ns]
+7.6 +6.9 95 +8  1008.6  1.6  746  291  +7.6      мокрая 
06 14.10.12 320 (СЗ) 10 км  {дождь, морось}  10/10 800 м 
[Sc]
+7.6 +6.2 91 +7  1010.8  2.1  747  292  +7.6         
09 14.10.12 340 (С) 10 км  слаб. морось{дождь}  10/10 450 м 
[St]
+7.1 +5.1 87 +6  1012.9  2.1  749  293           
12 14.10.12 320 (СЗ) 10 км  {морось}  10/10 660 м 
[Sc]
+6.9 +3.5 79 +6  1015.4  2.4  751  295           
15 14.10.12 320 (СЗ) 4{10}  10 км    10/10 750 м 
[Sc]
+6.4 +2.1 74 +5  1017.5  2.1  752  296    +7.6  0.5     
18 14.10.12 330 (СЗ) 3{10}  10 км    9/9 700 м 
[Sc]
+5.8 +1 71 +5  1018.8  1.1  753  297           
21 14.10.12 300 (СЗ) 10 км    ясно 
+4.5 +1.5 81 +4  1020.3  1.4  754  299           
00 15.10.12 300 (СЗ) 10 км    ясно 
+2.7 +0.6 86 +2  1022.3  1.9  756  301           
03 15.10.12 310 (СЗ) 10 км    ясно 
+1.9 +0 87 +1  1023.2  0.9  756  303  +1.9        влажная 
06 15.10.12 310 (СЗ) >10 км    ясно 
+4.8 +1.9 81 +4  1024.9  1.8  758  300  +1.7         
09 15.10.12 290 (З) >10 км    ясно 
+8.7 +3.1 68 +8  1024.7  758  295           
12 15.10.12 290 (З) >10 км    ясно 
+10.2 +2.6 59 +10  1025.1  0.5  758  294           
15 15.10.12 270 (З) 10 км    ясно 
+8.1 +4 75 +9  1026.1  0.9  759  296    +10.3       
18 15.10.12 250 (З) 10 км    ясно 
+5.1 +3.1 87 +6  1026.9  0.6  759  300           
21 15.10.12 280 (З) 10 км    ясно 
+5.9 +3.4 84 +7  1027.6  0.8  760  299           
00 16.10.12 010 (С) 10 км    ясно 
+4.4 +2.8 89 +5  1028.8  1.1  761  301           
03 16.10.12 тихо ()   10 км    ясно 
+2 +0.9 92 +2  1029.5  0.5  761  304  +2        замёрзшая 
06 16.10.12 140 (ЮВ) 10 км  в посл. час туман  5/1 200 м верхняя 
[St|Cs]
+6.7 +5.3 91 +8  1029.9  0.7  762  299  +1.5         
09 16.10.12 180 (Ю) 10 км    8/0 верхняя 
[Cs]
+10.7 +4.3 65 +12  1030.1  0.3  762  295           
12 16.10.12 170 (Ю) >10 км    9/0 средняя, верхняя 
[Ac lent|Ci]
+10.9 +5.1 67 +11  1029.9  -0.2  762  294           
15 16.10.12 150 (ЮВ) 10 км    6/0 средняя, верхняя 
[Ac lent|Ci fib]
+7.2 +3.5 77 +8  1029.6  -0.5  761  298    +12       
18 16.10.12 140 (ЮВ) 10 км    8/0 средняя 
[Ac trans]
+8.1 +4.5 78 +8  1029.1  -0.5  761  297           
21 16.10.12 140 (ЮВ) 10 км  в посл. час дождь  8/8 240 м 
[St]
+7.9 +5 82 +9  1029.1  0.1  761  297           
00 17.10.12 160 (Ю) 10 км  слаб. дождь  10/10 600 м 
[Ns]
+7.5 +6.4 93 +7  1028  -1.1  760  297           
03 17.10.12 140 (ЮВ) 0500 м  сильн. морось{дождь}  10/10 120 м 
[St]
+7.5 +6.8 95 +7  1027.1  -0.8  760  297  +6.7       
06 17.10.12 150 (ЮВ) 0500 м  туман{дождь, морось}  10/10 100 м 
[St]
+8 +7.4 96 +8  1027.4  0.3  760  296           
09 17.10.12 160 (Ю) 0500 м  туман  10/10 100 м 
[St]
+8.3 +7.8 97 +8  1026.9  -0.5  759  296           
12 17.10.12 140 (ЮВ) 1000 м  дымка{туман}  10/10 100 м 
[St]
+8.7 +8.2 97 +9  1026.7  -0.2  759  295           
15 17.10.12 150 (ЮВ) 1000 м  в посл. час туман  10/10 100 м 
[St]
+8.8 +8.3 97 +9  1026.2  -0.5  759  295    +8.8       
18 17.10.12 160 (Ю) 2000 м  дымка{туман}  10/10 100 м 
[St]
+8.7 +8.2 97 +8  1025.3  -0.9  758  295           
21 17.10.12 160 (Ю) 2000 м  дымка{дождь}  10/10 100 м 
[St]
+8.8 +8.3 97 +9  1024.8  -0.5  758  294           
00 18.10.12 160 (Ю) 2000 м  дымка{дождь}  10/10 100 м 
[St]
+9 +8.5 97 +9  1024.3  -0.4  758  294           
03 18.10.12 160 (Ю) 4000 м  дымка{дождь}  9/9 180 м 
[St]
+9.5 +9 97 +10  1024  -0.2  757  293  +8.6    0.3     
06 18.10.12 180 (Ю) 10 км  {дождь}  9/0 средняя 
[Ac lent]
+11.2 +9.9 92 +12  1024  0.1  757  291           
09 18.10.12 210 (ЮЗ) 10 км    10/3 1000 м средняя 
[Sc|Ac lent]
+14.6 +8.9 69 +15  1023.8  0.1  757  288           
12 18.10.12 200 (Ю) 10 км    10/8 570 м верхняя 
[Sc|Cs]
+15.7 +8.4 62 +17  1023.6  -0.2  757  287           
15 18.10.12 200 (Ю) 10 км    3/0 верхняя 
[Cs]
+12.8 +8.3 74 +13  1023.9  0.2  757  290    +16       
18 18.10.12 190 (Ю) 10 км    9/0 средняя 
[Ac cast]
+13.2 +7.5 68 +14  1024.5  0.6  758  290           
21 18.10.12 170 (Ю) 10 км    9/9 700 м средняя 
[Sc|Ac cast]
+12.6 +5.8 63 +14  1025.8  1.2  759  291           
00 19.10.12 270 (З) 10 км    8/0 средняя 
[Ac cast]
+11.9 +4.8 62 +12  1026.1  0.3  759  292           
03 19.10.12 250 (З) 10 км    9/9 660 м 
[Sc]
+11.2 +4.1 62 +11  1026.5  0.4  759  293  +10.9         
06 19.10.12 250 (З) >10 км  в посл. час дождь  9/4 300 м средняя 
[Ac As]
+12.3 +4.4 59 +12  1027  0.5  760  292           
09 19.10.12 260 (З) >10 км  {дождь}  8/3 1000 м средняя 
[Sc|Ac lent]
+14.3 +5.8 57 +14  1027  0.1  760  290           
12 19.10.12 280 (З) 10 км  {дождь}  10/10 480 м 
[Sc]
+15.1 +7.3 60 +16  1026.6  -0.3  760  289           
15 19.10.12 260 (З) 10 км    10/10 540 м 
[Sc]
+14.6 +7.3 62 +15  1026.9  0.2  760  289    +15.4       
18 19.10.12 240 (ЮЗ) 10 км    9/9 200 м 
[St]
+14.9 +8.1 64 +15  1026.4  -0.5  759  289           
21 19.10.12 250 (З) 10 км    8/8 240 м 
[St]
+13.8 +6.4 61 +13  1025.4  -1  759  290           
00 20.10.12 240 (ЮЗ) 10 км    8/8 240 м 
[St]
+13.1 +7.5 69 +13  1023.7  -1.6  757  290           
03 20.10.12 250 (З) 4{10}  10 км    9/9 630 м 
[Sc]
+12.9 +9.4 79 +12  1022.1  -1.6  756  289  +12.7         
06 20.10.12 250 (З) >10 км    9/8 700 м средняя 
[Sc|Ac lent]
+13.4 +9.2 76 +13  1020.8  -1.2  755  288           
09 20.10.12 260 (З) 5-11{13}  >10 км    10/10 <0100 м 
[Ac As]
+14.8 +8.8 67 +14  1018.5  -2.2  753  286           
12 20.10.12 260 (З) 4{13}  >10 км    9/9 <0100 м средняя 
[Ac As]
+15.5 +7.1 57 +15  1017.1  -1.4  752  286           
15 20.10.12 290 (З) 10 км    10/10 <0100 м 
[Ac As]
+14.8 +5 52 +14  1017.9  0.3  753  287    +15.6       
18 20.10.12 310 (СЗ) 4{11}  10 км    10/0 средняя 
[Ac As]
+13.1 +7.5 69 +13  1018.4  0.8  753  288           
21 20.10.12 290 (З) 10 км    10/3 1000 м средняя 
[Sc|Ac As]
+11.6 +7.5 76 +11  1018.6  0.1  753  290           
00 21.10.12 330 (СЗ) 10 км    9/0 средняя 
[Ac cast]
+10.2 +6.4 77 +10  1019.8  0.8  754  292           
03 21.10.12 310 (СЗ) 10 км    3/0 верхняя 
[Ci fib]
+8.4 +5.6 83 +8  1020.9  21.5  755  294  +8.4         
06 21.10.12 340 (С) >10 км    9/3 600 м средняя 
[Sc|Ac lent]
+8.4 +3 69 +8  1022.8  1.3  756  295  +7.8         
09 21.10.12 300 (СЗ) >10 км    10/3 600 м средняя 
[Sc|Ac As]
+8.4 +4 74 +8  1022.2  -0.3  756  295           
12 21.10.12 250 (З) 10 км    10/0 средняя 
[Ac As]
+8.8 +3.7 70 +9  1019.9  -2.2  754  294           
15 21.10.12 110 (В) 4000 м  слаб. дождь  10/10 300 м 
[Frnb|Ns]
+6.6 +5.4 92 +6  1017.3  -2.6  752  295    +8.9     
18 21.10.12 100 (В) 10 км  слаб. дождь  10/10 180 м 
[Frnb|Ns]
+6 +5.1 94 +7  1013.9  -3.4  750  295           
21 21.10.12 300 (СЗ) 4000 м  дождь  10/10 150 м 
[Frnb|Ns]
+7.4 +6.7 95 +8  1012  -2  748  292           
03 22.10.12 020 (С) 10 км  {дождь}  10/10 180 м 
[St]
+6.1 +5.3 95 +6  1011.5  -0.1  748  294  +5.9       
09 22.10.12 040 (СВ) 10 км  слаб. дождь  10/10 480 м 
[Ns]
+3.3 +1.8 90 +3  1014.5  750  298           
12 22.10.12 020 (С) 10 км  {дождь}  9/8 300 м средняя 
[Sc|Ac trans]
+3.8 +1.3 84 +3  1016.6  2.1  752  299           
15 22.10.12 010 (С) 10 км    8/8 300 м 
[Sc]
+3.4 +0.3 80 +2  1018.4  2.2  753  300    +4.3     
18 22.10.12 030 (СВ) 10 км    10/10 700 м 
[Sc]
+2 -2.6 72 +1  1021.5  755  302           
21 22.10.12 030 (СВ) 10 км  {ливн. осадки}  10/10 600 м 
[Sc]
+1 -2.2 79 -1  1023.5  1.5  756  304           
00 23.10.12 020 (С) 10 км  {ливн. осадки}  10/10 720 м 
[Sc]
-0.3 -5.3 69 -2  1025.1  1.9  758  306           
03 23.10.12 030 (СВ) 10 км    9/9 600 м 
[Sc]
-0.2 -4.5 73 1026.2  0.8  758  306  -0.3    0.3     
06 23.10.12 010 (С) 10 км    10/10 660 м 
[Sc]
-0.6 -5 72 -1  1027.2  1.3  759  307  -0.8         
09 23.10.12 010 (С) 10 км    10/10 700 м 
[Sc]
-0.1 -5 69 +1  1027.3  0.1  759  307           
12 23.10.12 360 (С) 10 км    10/10 720 м 
[Sc]
+0.4 -4.9 68 1027  -0.3  759  306           
15 23.10.12 360 (С) 10 км    10/10 660 м 
[Sc]
+0.1 -4.4 72 +1  1027  759  306    +0.5       
18 23.10.12 150 (ЮВ) 10 км    9/9 240 м 
[St]
-0.3 -0.9 96 1026.8  -0.2  759  306           
21 23.10.12 120 (ЮВ) 10 км    9/9 300 м 
[St]
-0.2 -0.8 96 1026.2  -0.9  758  306           
00 24.10.12 180 (Ю) 10 км    9/9 300 м 
[St]
-0.4 -4.2 76 1024.8  -1.2  758  306           
03 24.10.12 180 (Ю) 10 км    9/9 300 м 
[St]
-0.8 -4.5 76 1023.7  757  306  -0.8         
06 24.10.12 240 (ЮЗ) 10 км    10/10 720 м 
[Sc]
-0.5 -4.6 74 -1  1023  -0.7  756  306  -0.9         
09 24.10.12 170 (Ю) 10 км  снежные зёрна  10/10 660 м 
[St]
-0.2 -3.3 80 1021.5  -1.4  755  305           
12 24.10.12 200 (Ю) 10 км  в посл. час снег  10/10 700 м 
[St]
+0.1 -3.5 77 +1  1020.1  -1.4  754  304           
15 24.10.12 200 (Ю) 10 км  снежные зёрна  10/10 700 м 
[St]
+0 -3.5 77 +1  1018.9  -1.2  753  304    +0.2       
18 24.10.12 тихо ()   10 км    10/10 700 м 
[St]
-0.2 -4.2 74 -0  1018.7  -1  753  304           
21 24.10.12 210 (ЮЗ) 10 км    10/10 800 м 
[St]
-0.3 -4.7 72 1016.2  -2.1  751  304           
00 25.10.12 230 (ЮЗ) 10 км    10/10 600 м 
[St]
-0.8 -4.1 78 1014.9  -1.3  750  304           
03 25.10.12 220 (ЮЗ) 10 км    10/8 300 м 
[Sc]
-2 -3.5 90 -1  1014.8  -0.5  750  305  -2.6         
06 25.10.12 190 (Ю) 10 км    10/0 средняя 
[Ac cast]
-0.5 -2.8 84 1013.2  -1.2  749  303           
09 25.10.12 250 (З) 10 км    9/9 480 м 
[Sc]
-0.5 -3.7 79 -1  1012.5  -0.7  748  303           
12 25.10.12 230 (ЮЗ) 10 км    9/8 700 м средняя 
[Sc|Ac cast]
+0.8 -3.7 72 1011.5  -0.9  748  301           
15 25.10.12 200 (Ю) 10 км    10/10 720 м 
[Sc]
+0.9 -3.1 75 1010.2  -1.3  747  300    +1.1       
18 25.10.12 220 (ЮЗ) 10 км    9/9 800 м 
[Sc]
+1.5 -3.9 67 +1  1009.1  -1.1  746  299           
21 25.10.12 230 (ЮЗ) 10 км    10/10 750 м 
[Sc]
+1.5 -3.7 68 +1  1008  -1  745  299           
00 26.10.12 230 (ЮЗ) 10 км    10/10 750 м 
[Sc]
+1.3 -3.3 71 +2  1006  -2  744  299           
03 26.10.12 200 (Ю) 10 км    10/10 800 м 
[Sc]
+1.6 -3.6 68 +2  1003.8  -2.1  742  298  +0.9         
06 26.10.12 190 (Ю) 10 км    10/10 900 м 
[Sc]
+1.7 -3.4 69 +1  1001.9  -1.9  741  297           
09 26.10.12 200 (Ю) 10 км  в посл. час крупа  9/9 400 м 
[Frnb]
+2.8 +0.4 84 +1  999.6  -2.6  739  295           
12 26.10.12 190 (Ю) 10 км  {ливн. осадки}  10/10 300 м 
[St]
+3.7 +0.3 78 +2  995.4  -3.7  736  292           
15 26.10.12 190 (Ю) 11-11{13}  10 км  слаб. морось{дождь}  9/9 400 м 
[Frnb]
+3.9 +1.4 84 992.6  -3.1  734  291    +4.1       
18 26.10.12 250 (З) 5{10}  10 км  слаб. дождь{морось}  10/10 400 м 
[Ns]
+5.1 +3.1 87 +3  992.1  -0.3  734  290           
21 26.10.12 300 (СЗ) 6{10}  10 км  {дождь}  3/0 средняя 
[Ac und]
+3.2 -0.9 74 996.2  3.6  736  293           
00 27.10.12 260 (З) 4{10}  10 км    8/8 800 м 
[Sc]
+2.1 -2.6 71 999.9  739  296           
03 27.10.12 250 (З) 10 км    3/0 средняя 
[Ac lent]
+0.7 -3.2 75 -2  1003.1  742  298  +0.5       
06 27.10.12 260 (З) 4{10}  >10 км    8/8 720 м 
[Cu Sc]
+1.6 -3 72 -1  1006  2.9  744  298           
09 27.10.12 270 (З) 4-10{12}  >10 км    8/8 600 м 
[Cu med, cong]
+2.5 -5.3 56 1009  2.6  746  298           
12 27.10.12 250 (З) 5{12}  >10 км    3/0 средняя, верхняя 
[Ac lent|Ci fib]
+3.7 -6.8 46 +1  1011.2  2.3  747  298           
15 27.10.12 250 (З) 4-11{11}  10 км    3/0 верхняя 
[Ci fib]
+2.3 -5.3 57 1012.7  1.5  749  300    +3.9       
18 27.10.12 250 (З) 8{11}  10 км    1/0 верхняя 
[Ci fib]
+1.9 -5.1 60 -2  1015  2.3  750  301           
21 27.10.12 270 (З) 10 км    3/0 верхняя 
[Cs]
+1.1 -4 69 1018.4  3.6  753  303           
00 28.10.12 290 (З) 10 км    1/0 верхняя 
[Ci fib]
+0.4 -3.2 77 1020.7  1.9  754  304           
03 28.10.12 230 (ЮЗ) 10 км    3/0 верхняя 
[Cs]
-0.1 -3.6 77 +1  1022.7  2.3  756  305  -0.3         
06 28.10.12 170 (Ю) 10 км    9/9 <0100 м средняя 
[Ac As]
+0.8 -2.6 78 +1  1023.7  757  304           
09 28.10.12 180 (Ю) >10 км    8/4 <0100 м средняя, верхняя 
[Ac As|Cs]
+4 -1.5 67 +4  1022.8  -0.7  756  300           
12 28.10.12 150 (ЮВ) 10 км    8/3 <0100 м средняя, верхняя 
[As op|Cs]
+4.6 -1.8 63 +3  1020.5  -2.2  755  299           
15 28.10.12 160 (Ю) 5-10{10}  10 км    8/0 <0100 м верхняя 
[Cs]
+4.4 -1.9 64 +2  1017  -3.4  752  298    +5.8       
18 28.10.12 160 (Ю) 4{10}  10 км    8/0 средняя 
[Ac lent]
+5.3 +0.8 73 +4  1013.7  -3.4  750  296           
21 28.10.12 190 (Ю) 3-10{11}  10 км    10/0 средняя, верхняя 
[Ac lent|Cs]
+6.8 +2.2 72 +6  1010.9  -2.6  748  294           
00 29.10.12 190 (Ю) 3{10}  10 км  слаб. дождь  10/10 300 м 
[Ns]
+7.4 +5.6 88 +7  1007.8  -3  745  291           
03 29.10.12 180 (Ю) 3{10}  10 км  слаб. дождь  10/10 300 м 
[Ns]
+9.3 +7.4 88 +9  1005.9  -1.7  744  289  +4.3       
06 29.10.12 190 (Ю) 3{11}  10 км  слаб. дождь  10/10 660 м 
[Ns]
+9.9 +6.3 78 +9  1003.7  -2.2  742  288           
09 29.10.12 210 (ЮЗ) 2{10}  10 км  слаб. дождь  10/10 480 м 
[Frnb|Ns]
+9.8 +7.8 87 +10  1002.3  -1.4  741  287           
12 29.10.12 250 (З) 5{13}  10 км  слаб. морось{дождь}  10/10 210 м 
[St]
+12.3 +10.8 91 +13  1003.7  1.6  743  284           
15 29.10.12 300 (СЗ) 5{13}  4000 м  дождь{ливн. осадки}  10/10 200 м 
[Frnb|Ns]
+7 +5.6 91 +5  1008.4  4.3  746  292    +12.7     
18 29.10.12 330 (СЗ) 10 км  {ливн. осадки, дождь}  9/9 400 м 
[St]
+2.3 -0.8 80 +1  1014.8  750  300           
21 29.10.12 340 (С) 10 км    9/9 540 м 
[Sc]
+1.1 -3.2 73 1019  4.1  753  303           
00 30.10.12 010 (С) 10 км    10/10 750 м 
[Sc]
+0.2 -4.1 73 -2  1021.9  2.8  755  305           
03 30.10.12 010 (С) 10 км    9/9 750 м 
[Sc]
-0.2 -5.1 69 -1  1023.8  1.8  757  306  -0.2    0.7     
06 30.10.12 050 (СВ) 10 км    9/0 средняя 
[As trans]
-1.2 -6 70 -2  1025.4  1.6  758  307  -1.2         
09 30.10.12 080 (В) 10 км    10/0 средняя 
[As op]
-0.1 -6.3 63 -1  1025.9  0.5  758  306           
12 30.10.12 080 (В) 10 км    9/0 средняя 
[As trans]
+0.1 -6.6 61 -2  1025.6  -0.2  758  306           
15 30.10.12 080 (В) 10 км    6/0 верхняя 
[Cs]
-0.9 -5.5 71 -3  1025.3  -0.4  758  307    +0.1       
18 30.10.12 100 (В) 10 км    10/0 средняя 
[As trans]
-0.5 -5.9 67 -2  1024.5  -0.7  757  306           
21 30.10.12 100 (В) 10 км    10/0 средняя 
[Ac As]
+0.2 -5.5 65 -2  1023.4  -1.1  757  305           
00 31.10.12 110 (В) 3{10}  10 км    10/0 средняя 
[Ac As]
+0.8 -6.4 59 -1  1021.4  -2.3  755  304           
03 31.10.12 140 (ЮВ) 10 км    10/10 480 м 
[Sc]
+1.3 -5.1 62 1018.6  -2.4  753  303  -1         
06 31.10.12 130 (ЮВ) 2{10}  10 км  слаб. дождь  10/10 600 м 
[Ns]
+0.5 -0.7 92 1017  -1.6  752  302           
09 31.10.12 140 (ЮВ) 4000 м  дымка{дождь}  10/10 600 м 
[Sc]
+4.2 +3.2 93 +2  1014.6  -2.1  750  297           
12 31.10.12 140 (ЮВ) 5{13}  4000 м  морось{дождь}  10/10 480 м 
[St]
+7 +6.1 94 +5  1012.7  -1.7  749  293           
15 31.10.12 160 (Ю) 4000 м  слаб. дождь  10/10 200 м 
[Frnb|Ns]
+9.5 +8.4 93 +9  1011.4  -1.1  748  290    +8.4     
18 31.10.12 180 (Ю) 2{11}  10 км  {дождь}  10/10 240 м 
[St]
+10.7 +9.3 91 +11  1011.4  748  288           
21 31.10.12 250 (З) 5-10{10}  10 км    9/9 240 м 
[St]
+7 +2.2 71 +5  1015.5  3.9  751  295           
00 01.11.12 260 (З) 3{11}  10 км    9/9 240 м 
[St]
+4.9 -0.4 68 +4  1017.2  1.6  752  298           
03 01.11.12 260 (З) 10 км    9/9 240 м 
[St]
+3.6 -0.7 73 +3  1019  1.7  753  300  +3.6    0.0     
06 01.11.12 260 (З) 10 км  в посл. час ливневой снег  10/10 300 м 
[Frnb]
+2.5 +0.2 85 +2  1021.5  2.4  755  302  +2.4         
09 01.11.12 280 (З) 4000 м  снежные зёрна  10/10 400 м 
[St]
+1.9 -1.7 77 1023.3  1.7  757  303           
Время (UTC), дата Ветер
(°,м/с) 
Видим.   Явления Облачность Т
(°С)
Тd
(°С)
f(%) Тe
(°С)
Pmin
(гПа)
dP
(гПа)
Po
(мм)
O2
(г/м3)
Тmin Tmax R s Состояние
почвы